Free aircraft booking by Goboko

Please sign in again to see this booking

Sign in

Goboko Update

Goboko is set to continue

The Goboko booking system is to continue under a new operator, a member of one of our longest-subscribed flying clubs

The new and previous operators of the site are working to ensure there will be no interruption to your booking service as the transition takes place. Of course, aircraft booking will continue to be free

Thank you for your continued commitment to Goboko

Info

Aviation weather

METAR KDAB 161653Z 00000KT 10SM SCT037 31/24 A3010 RMK AO2 SLP193 T03110244

Aviation weather from ADDS. Re-check weather before flight.

-